Regional Weather Roundup
Issued by NWS

Home | Current Version | Previous Version | Text Only | Print | Product List | Glossary Off
Versions: 1 2 3 4 5 6 7 8 9 10 11 12 13 14 15 16 17 18 19 20 21 22 23 24 25 26 27 28 29 30 31 32 33 34 35 36 37 38 39 40 41 42 43 44 45 46 47 48 49 50

000
ASUS43 KOAX 290710
RWRNE

WEATHER ROUNDUP FOR NEBRASKA
NATIONAL WEATHER SERVICE OMAHA NE
200 AM CDT WED MAR 29 2017

NOTES: SATELLITE DATA IS BEING USED TO AUGMENT CLOUD COVER ABOVE
       12000 FEET.
       "FAIR" INDICATES FEW OR NO CLOUDS BELOW 12,000 FEET WITH NO
       SIGNIFICANT WEATHER AND/OR OBSTRUCTIONS TO VISIBILITY.

  * THESE STATIONS DO NOT REPORT WEATHER SUCH AS RAIN...SNOW OR FOG.

NEZ001>004-019>022-054>056-290800-
NEBRASKA PANHANDLE

CITY           SKY/WX    TMP DP  RH WIND       PRES   REMARKS
SCOTTSBLUFF    CLOUDY    40  37  89 N3        30.11S
ALLIANCE       CLOUDY    38  37  97 NE5       30.09F WCI  34
CHADRON        CLOUDY    41  38  89 CALM      30.13F
KIMBALL        CLOUDY    37  37 100 N5        30.09R WCI  33
SIDNEY         CLOUDY    37  35  92 E8        30.10R WCI  31
$$

NEZ057>060-069>072-079>082-290800-
SOUTHWEST NEBRASKA

CITY           SKY/WX    TMP DP  RH WIND       PRES   REMARKS
NORTH PLATTE   LGT RAIN  44  41  89 NE9       30.07F
IMPERIAL       LGT RAIN  40  38  93 NE10      30.07R WCI  33
LEXINGTON      DRIZZLE   43  41  93 NE12      30.06R
MCCOOK         LGT RAIN  42  42 100 N10       30.05R FOG
OGALLALA       CLOUDY    42  40  94 NE5       30.10R
$$

NEZ005>010-023>029-035>040-094-290800-
NORTH CENTRAL NEBRASKA

CITY           SKY/WX    TMP DP  RH WIND       PRES   REMARKS
VALENTINE      LGT RAIN  42  40  92 CALM      30.13S FOG
AINSWORTH      DRIZZLE   42  42 100 CALM      30.13R
BROKEN BOW     LGT RAIN  44  41  89 N8        30.08S
O`NEILL        CLOUDY    46  42  87 S3        30.12S
ORD            LGT RAIN  44  41  89 N7        30.08S FOG
THEDFORD       DRIZZLE   43  42  97 NE6       30.10F
$$

NEZ041-046>049-061>064-073>077-083>087-290800-
SOUTH CENTRAL NEBRASKA

CITY           SKY/WX    TMP DP  RH WIND       PRES   REMARKS
GRAND ISLAND   CLOUDY    43  43 100 NE12      30.06F FOG
AURORA         CLOUDY    43  43 100 NE12      30.05F FOG
HASTINGS       CLOUDY    43  41  93 NE13      30.03F FOG
HEBRON         CLOUDY    45  44  97 NE13G20   30.00F FOG
HOLDREGE       CLOUDY    42  41  95 NE14      30.03F FOG
KEARNEY *      CLOUDY    43  39  87 NE13      30.05S
YORK           LGT RAIN  45  45 100 NE13      30.05F
$$

NEZ011>018-030>034-042>045-290800-
NORTHEAST NEBRASKA

CITY           SKY/WX    TMP DP  RH WIND       PRES   REMARKS
NORFOLK        LGT RAIN  45  41  86 NE7       30.09F
ALBION         DRIZZLE   46  42  86 NE5       30.08F
BLAIR          CLOUDY    47  43  87 NE8       30.08F
FREMONT        LGT RAIN  46  45  97 NE3       30.10F
TEKAMAH        LGT RAIN  46  43  89 NE7       30.11S
WAYNE          DRIZZLE   44  44  99 N3        30.12S
$$

NEZ050>053-065>068-078-088>093-290800-
SOUTHEAST NEBRASKA

CITY           SKY/WX    TMP DP  RH WIND       PRES   REMARKS
LINCOLN        LGT RAIN  46  44  93 NE13      30.06F FOG
OMAHA EPPLEY   LGT RAIN  49  42  77 NE7       30.09F
BEATRICE       RAIN      46  46  98 NE12      30.02S
FALLS CITY     CLOUDY    50  47  89 NE10      30.00F
NEBRASKA CITY  LGT RAIN  47  47  99 NE8       30.04F
PLATTSMOUTH    LGT RAIN  46  43  87 NE8       30.06F
$$

NEZ044-045-051>053-067-290800-
OMAHA AREA

CITY           SKY/WX    TMP DP  RH WIND       PRES   REMARKS
OMAHA EPPLEY   LGT RAIN  49  42  77 NE7       30.09F
BLAIR          CLOUDY    47  43  87 NE8       30.08F
FREMONT        LGT RAIN  46  45  97 NE3       30.10F
MILLARD        DRIZZLE   49  45  85 E7        30.08F
OFFUTT AFB     LGT RAIN  47  44  87 NE7       30.07F
PLATTSMOUTH    LGT RAIN  46  43  87 NE8       30.06F
WAHOO          RAIN      46  44  93 NE8       30.07F
$$




USA.gov is the U.S. government's official web portal to all federal, state and local government web resources and services.